User: anonymous   Login
Location: Unspecified
(0.0000°N, 0.0000°E)
Time: 05:16:03
(UTC+00:00)
Language:

NNS O-32 - Orbit

View from above orbital plane
View from above orbital plane
View from above satellite
View from above satellite

Ground track
Ground track

The orbit data is extracted from the following two-line orbital elements,

1 19071U 88033B   18109.50325123 +.00000031 +00000-0 +46207-4 0  9997
2 19071 090.3624 284.3707 0189035 018.7069 032.3686 13.27606855452026
Epoch (UTC): 19 April 2018 12:04:40
Eccentricity: 0.0189035
inclination: 90.3624°
perigee height: 1013 km
apogee height: 1298 km
right ascension of ascending node: 284.3707°
argument of perigee: 18.7069°
revolutions per day: 13.27606855
mean anomaly at epoch: 32.3686°
orbit number at epoch: 45202

The dashed part of the orbit path shows where the satellite is in the earth's shadow,  

DLR